CZ-3C DEB, 40195

Orbit data source: Space-Track

CZ-3C DEB, 40195 is space debris originally from a launch on Fri, 24 Feb 2012 UTC launched from the Xichang Space Center, China (XSC). Debris objects in space refer to the collection of defunct objects orbiting the Earth. Examples of debris include non-operational satellites, rocket bodies, and fragments generated from explosions, collisions, or faulty payload assembly.

Loading next visibility...
CZ-3C DEB details
Identifier
40195, 2012-008E
Orbit
Molniya
Last TLE update3 days ago
Origin
Flag of CNCASC (CN / PRC)
ManufacturerCALT
MissionSpacecraft
Bus & MotorUnknown
MassUnknown
Launch date (UTC)
2012-02-24 (13 years ago)
Launch vehicleUnknown
Launch site
Xichang Space Center, China (XSC)
Object type
Payload
Rocket body
Debris
Shape & HBRUnknown
Radar Cross SectionMedium (>0.1 m² and <1 m²)

Expand to show TLE details & history

TLE from 3 days ago
0 CZ-3C DEB
1 40195U 12008E   24334.46399567  .00006787  00000-0  17910-1 0  9992
2 40195  20.5153  45.4405 7134031 165.1061 239.0550  2.38201879 93677
Epoch: 2024-11-29T11:08Z
Definitive object data (Epoch: 2024-11-29T11:08:09.225Z)
Latitude0.00004°
Longitude169.54279°
Altitude31,106.999 km
Speed2.106 km/s
True Right ascension03h 01m 38s
True Declination0° 00' 00"
Sunlit
Object was in daylight at TLE epoch
Visualization TLE readout
Latitude-6.70459°
Longitude150.17122°
Altitude33,529.539 km
Speed1.773 km/s
Apparent Right ascension01h 20m 56s
Apparent Declination-13° 24' 11"
Sunlit
Object is in daylight
Visualization observer readout
Local Sidereal Time05:00:34
Azimuth236.013° WSW
Elevation16.27°
Doppler factor1
Orbital elements
Apogee altitude34,208.124 km
Perigee altitude410.631 km
Semi-major axis23,687.515 km
Eccentricity0.7134031
Inclination20.5153°
RAAN45.4405°
Arg. of periapsis165.1061°
True anomaly194.86632°
Mean anomaly239.055°
Eccentric anomaly215.38539°
Mean motion0.59534 °/min
BSTAR0.01791
Orbital period604.7 mins
Loading maneuver chart data...
Loading historical data...
Loading historical data...
Loading historical data...
Loading historical data...
Loading historical data...
Loading historical data...
Loading historical data...

CZ-3C DEB Visibility forecast

Observer location: undefined°, undefined

Span
Click to sort rows by Start time (UTC) header in descending order
Start Az.
Max El. time (UTC)
Max El. Az.
Max El.
End time (UTC)
End Az.
133 mins2024-12-02 07:14:32.640Z235.999° WSW2024-12-02 07:14:32.640Z235.999° WSW15.643°2024-12-02 09:27:32.640Z252.746° W
58 mins2024-12-02 11:55:32.640Z263.362° W2024-12-02 12:46:32.640Z214.587° SW26.523°2024-12-02 12:53:32.640Z157.731° S
431 mins2024-12-03 00:03:32.640Z172.859° S2024-12-03 07:14:32.640Z202.595° SW36.02°2024-12-03 07:14:32.640Z202.595° SW
|